�N����,����,�~����,�C��,���x,�C��,����,���ϕ���,�ő�u�ԕ���,�ő厞����,���˗�,�I�_���x,�n�����x,�ő啗���N��,DTYPE
"23/04/05","00:10",0.0,13.4,79.8,1019.0,308.4,2.0,3.2,311.4,0.00,10.0,14.7,"00:01:46",1
"23/04/05","00:20",0.0,13.3,80.2,1019.0,280.9,1.1,1.7,272.1,0.00,10.0,14.6,"00:18:42",1
"23/04/05","00:30",0.0,13.3,80.8,1018.5,280.1,1.6,2.1,267.3,0.00,10.1,14.6,"00:29:04",1
"23/04/05","00:40",0.0,13.3,81.1,1018.5,295.5,1.8,2.5,319.3,0.00,10.2,14.6,"00:34:56",1
"23/04/05","00:50",0.0,13.2,81.4,1018.7,312.7,1.7,2.1,326.7,0.00,10.1,14.6,"00:43:58",1
"23/04/05","01:00",0.0,13.1,81.8,1018.7,305.7,1.7,2.8,317.6,0.00,10.1,14.6,"00:54:44",1
"23/04/05","01:10",0.0,13.0,82.2,1018.7,298.1,1.7,2.1,317.1,0.00,10.1,14.6,"01:00:52",1
"23/04/05","01:20",0.0,12.9,82.6,1019.0,288.9,1.5,1.7,291.3,0.00,10.1,14.4,"01:12:04",1
"23/04/05","01:30",0.0,12.9,82.9,1019.0,292.1,1.5,2.4,314.6,0.00,10.1,14.5,"01:26:02",1
"23/04/05","01:40",0.0,12.9,83.1,1018.7,284.3,1.3,1.6,312.2,0.00,10.1,14.4,"01:31:22",1
"23/04/05","01:50",0.0,12.8,83.2,1018.7,300.2,1.5,1.8,315.3,0.00,10.1,14.3,"01:45:26",1
"23/04/05","02:00",0.0,12.8,83.7,1018.5,319.7,1.5,1.8,331.2,0.00,10.2,14.1,"01:58:56",1
"23/04/05","02:10",0.0,12.7,84.2,1018.7,314.3,1.6,2.1,317.6,0.00,10.1,14.5,"02:04:32",1
"23/04/05","02:20",0.0,12.6,84.9,1018.7,294.7,1.5,2.1,316.0,0.00,10.2,14.4,"02:17:48",1
"23/04/05","02:30",0.0,12.5,85.2,1018.7,309.1,1.5,2.4,313.2,0.00,10.1,14.2,"02:20:58",1
"23/04/05","02:40",0.0,12.6,85.5,1019.0,309.3,1.7,2.1,322.7,0.00,10.3,14.4,"02:33:14",1
"23/04/05","02:50",0.0,12.5,85.8,1018.5,295.2,1.5,2.0,318.2,0.00,10.2,14.3,"02:41:00",1
"23/04/05","03:00",0.0,12.3,85.9,1018.2,287.1,1.2,1.3,298.5,0.00,10.1,14.2,"02:54:54",1
"23/04/05","03:10",0.0,12.4,86.2,1018.5,295.3,1.7,2.6,313.3,0.00,10.2,14.2,"03:09:28",1
"23/04/05","03:20",0.0,12.4,86.3,1018.2,295.1,1.8,2.7,315.6,0.00,10.2,14.2,"03:13:30",1
"23/04/05","03:30",0.0,12.3,86.3,1018.2,294.6,1.5,1.8,307.5,0.00,10.1,14.2,"03:24:42",1
"23/04/05","03:40",0.0,12.2,86.5,1018.2,293.1,1.6,2.4,317.8,0.00,10.1,14.1,"03:38:58",1
"23/04/05","03:50",0.0,12.2,86.8,1018.2,312.5,2.2,2.8,325.2,0.00,10.1,14.1,"03:40:52",1
"23/04/05","04:00",0.0,12.1,86.9,1018.2,300.5,1.7,2.6,319.2,0.00,10.0,14.0,"03:50:50",1
"23/04/05","04:10",0.0,12.0,87.1,1017.8,294.4,1.6,1.9,303.1,0.00,10.0,14.2,"04:09:00",1
"23/04/05","04:20",0.0,11.9,87.3,1018.2,309.8,1.8,2.2,312.5,0.00,9.9,14.1,"04:10:40",1
"23/04/05","04:30",0.0,11.8,87.5,1018.2,312.3,2.0,2.2,321.5,0.00,9.8,14.2,"04:24:44",1
"23/04/05","04:40",0.0,11.9,87.8,1018.2,306.0,2.0,2.8,304.0,0.00,10.0,14.0,"04:35:44",1
"23/04/05","04:50",0.0,11.9,88.1,1018.2,285.1,1.8,2.0,271.0,0.00,10.0,14.1,"04:47:22",1
"23/04/05","05:00",0.0,11.9,88.2,1018.2,298.1,2.0,2.6,309.5,0.00,10.1,13.9,"04:57:42",1
"23/04/05","05:10",0.0,11.8,88.4,1018.2,315.4,1.8,2.7,319.0,0.00,10.0,13.7,"05:07:30",1
"23/04/05","05:20",0.0,11.6,88.7,1018.5,326.0,2.1,2.5,322.7,0.00,9.8,14.0,"05:19:00",1
"23/04/05","05:30",0.0,11.4,89.0,1018.5,316.2,2.0,2.5,323.0,0.00,9.7,14.0,"05:24:02",1
"23/04/05","05:40",0.0,11.2,89.5,1018.7,290.6,1.6,2.5,316.0,0.00,9.6,13.9,"05:39:30",1
"23/04/05","05:50",0.0,11.3,89.8,1018.7,294.8,2.1,2.8,305.6,0.00,9.7,13.7,"05:48:34",1
"23/04/05","06:00",0.0,11.5,90.1,1018.5,291.6,2.0,2.7,313.7,0.00,10.0,13.7,"05:51:12",1
"23/04/05","06:10",0.0,11.7,90.2,1018.7,303.9,2.5,2.9,319.2,0.00,10.2,13.8,"06:06:54",1
"23/04/05","06:20",0.0,11.8,90.3,1018.5,304.0,1.7,2.9,313.3,0.00,10.3,13.8,"06:10:16",1
"23/04/05","06:30",0.0,11.7,90.3,1018.7,306.2,1.8,2.4,324.6,0.00,10.2,13.7,"06:29:22",1
"23/04/05","06:40",0.0,11.8,90.4,1019.0,321.7,2.3,2.5,320.7,0.00,10.3,13.8,"06:30:24",1
"23/04/05","06:50",0.0,11.8,90.5,1019.2,312.8,1.5,2.2,323.0,0.00,10.3,13.7,"06:40:08",1
"23/04/05","07:00",0.0,11.7,90.6,1019.2,298.7,0.8,1.9,315.6,0.00,10.3,13.6,"06:59:50",1
"23/04/05","07:10",0.0,11.8,90.7,1019.0,317.7,2.2,2.6,324.9,0.00,10.4,13.8,"07:03:38",1
"23/04/05","07:20",0.0,11.8,90.9,1019.2,321.7,2.1,2.7,322.8,0.00,10.4,13.6,"07:16:34",1
"23/04/05","07:30",0.0,11.9,91.1,1019.4,299.1,1.8,2.2,322.5,0.00,10.5,13.7,"07:21:00",1
"23/04/05","07:40",0.0,12.1,91.2,1019.4,300.7,1.5,1.9,309.8,0.01,10.7,13.7,"07:32:26",1
"23/04/05","07:50",0.0,12.3,91.1,1019.4,298.8,1.6,2.4,318.9,0.01,10.9,13.4,"07:46:18",1
"23/04/05","08:00",0.0,12.5,91.0,1019.4,287.2,1.2,1.4,300.7,0.01,11.1,13.7,"07:54:16",1
"23/04/05","08:10",0.0,12.7,90.8,1019.4,278.8,0.7,1.3,273.5,0.02,11.3,13.6,"08:00:24",1
"23/04/05","08:20",0.0,13.1,90.7,1019.4,275.5,0.5,0.8,272.8,0.05,11.7,13.6,"08:15:54",1
"23/04/05","08:30",0.0,13.5,90.4,1019.4,290.1,1.0,1.7,314.9,0.07,12.0,13.6,"08:25:52",1
"23/04/05","08:40",0.0,13.7,89.7,1019.4,310.5,1.6,1.9,329.1,0.07,12.1,13.5,"08:34:58",1
"23/04/05","08:50",0.0,14.0,88.8,1019.9,319.1,1.6,2.2,312.2,0.10,12.2,13.7,"08:48:48",1
"23/04/05","09:00",0.0,14.5,87.6,1019.9,326.7,1.1,2.7,323.3,0.11,12.5,13.7,"08:52:42",1
"23/04/05","09:10",0.0,15.2,86.1,1019.7,314.8,0.7,1.8,333.3,0.17,12.9,13.6,"09:01:12",1
"23/04/05","09:20",0.0,15.6,83.8,1019.7,135.1,0.7,1.8,141.6,0.22,12.9,13.6,"09:19:36",1
"23/04/05","09:30",0.0,15.8,81.0,1019.9,228.3,0.8,1.7,119.0,0.14,12.6,13.7,"09:20:48",1
"23/04/05","09:40",0.0,16.3,79.5,1019.7,278.1,0.5,1.1,165.0,0.16,12.8,13.6,"09:30:56",1
"23/04/05","09:50",0.0,16.4,77.9,1019.9,328.4,0.8,1.9,323.3,0.17,12.6,13.6,"09:47:04",1
"23/04/05","10:00",0.0,16.7,75.7,1019.7,253.4,1.1,2.5,239.6,0.24,12.4,13.7,"09:59:04",1
"23/04/05","10:10",0.0,16.5,75.0,1019.9,207.2,1.0,2.1,125.2,0.17,12.1,13.8,"10:04:48",1
"23/04/05","10:20",0.0,16.9,75.0,1019.4,213.6,0.6,1.6,145.3,0.17,12.5,13.7,"10:19:52",1
"23/04/05","10:30",0.0,16.8,73.3,1019.4,149.2,1.0,1.9,116.5,0.13,12.0,14.0,"10:27:44",1
"23/04/05","10:40",0.0,16.6,73.0,1019.2,167.6,1.0,2.6,123.7,0.13,11.8,14.0,"10:35:44",1
"23/04/05","10:50",0.0,16.8,72.2,1019.2,178.6,0.8,1.8,187.2,0.12,11.8,14.0,"10:46:48",1
"23/04/05","11:00",0.0,16.9,71.0,1019.0,233.9,1.5,2.5,202.7,0.15,11.7,13.8,"10:51:52",1
"23/04/05","11:10",0.0,17.2,70.2,1018.7,200.7,1.1,2.7,176.6,0.15,11.8,14.0,"11:01:28",1
"23/04/05","11:20",0.0,17.0,70.0,1019.0,199.0,1.3,2.5,213.1,0.12,11.5,14.2,"11:15:12",1
"23/04/05","11:30",0.0,17.2,69.6,1018.7,184.1,1.0,2.5,144.9,0.14,11.6,14.1,"11:28:24",1
"23/04/05","11:40",0.0,17.4,69.1,1018.7,198.3,1.2,2.8,238.6,0.16,11.7,14.1,"11:38:24",1
"23/04/05","11:50",0.0,17.7,67.4,1019.0,195.5,1.1,3.5,123.3,0.20,11.6,14.1,"11:47:36",1
"23/04/05","12:00",0.0,18.4,64.3,1018.5,199.3,1.2,2.5,225.5,0.34,11.6,14.2,"11:52:24",1
"23/04/05","12:10",0.0,18.7,61.4,1018.2,181.3,1.7,3.7,152.2,0.34,11.2,14.1,"12:05:28",1
"23/04/05","12:20",0.0,18.5,61.0,1018.0,176.8,1.7,3.4,145.1,0.24,10.9,14.4,"12:17:28",1
"23/04/05","12:30",0.0,18.4,62.5,1017.8,166.1,2.2,3.9,240.3,0.26,11.2,14.3,"12:26:32",1
"23/04/05","12:40",0.0,18.4,59.8,1017.3,153.3,2.2,4.5,129.2,0.21,10.5,14.3,"12:33:04",1
"23/04/05","12:50",0.0,18.2,59.4,1017.5,151.9,2.5,4.8,127.9,0.14,10.2,14.5,"12:44:40",1
"23/04/05","13:00",0.0,18.3,57.8,1017.5,163.2,2.5,5.2,121.9,0.18,9.9,14.2,"12:56:40",1
"23/04/05","13:10",0.0,18.3,58.0,1017.3,180.6,1.7,3.9,169.6,0.12,9.9,14.3,"13:01:20",1
"23/04/05","13:20",0.0,18.2,57.1,1017.3,153.9,1.5,3.4,111.9,0.11,9.6,14.2,"13:16:40",1
"23/04/05","13:30",0.0,18.3,56.9,1017.1,179.1,1.2,2.6,196.3,0.13,9.7,14.4,"13:24:56",1
"23/04/05","13:40",0.0,18.5,56.4,1017.3,197.8,0.8,1.8,127.3,0.11,9.7,14.6,"13:39:44",1
"23/04/05","13:50",0.0,18.6,55.6,1017.3,123.0,1.8,3.2,120.5,0.14,9.6,14.6,"13:46:40",1
"23/04/05","14:00",0.0,18.8,55.1,1017.1,126.1,1.5,3.2,108.0,0.15,9.6,14.5,"13:50:08",1
"23/04/05","14:10",0.0,19.0,53.5,1016.4,146.9,1.5,2.6,134.8,0.15,9.4,14.4,"14:05:52",1
"23/04/05","14:20",0.0,18.9,53.7,1016.4,123.0,2.1,3.9,110.2,0.12,9.4,14.5,"14:10:24",1
"23/04/05","14:30",0.0,19.0,51.6,1016.1,36.1,1.2,2.9,57.6,0.10,8.9,14.8,"14:23:04",1
"23/04/05","14:40",0.0,19.1,52.3,1016.4,175.6,0.8,1.9,121.4,0.07,9.1,14.6,"14:38:40",1
"23/04/05","14:50",0.0,19.0,52.8,1016.4,220.8,0.6,1.4,208.4,0.07,9.2,14.5,"14:45:36",1
"23/04/05","15:00",0.0,19.1,51.1,1015.9,163.4,1.6,3.9,125.0,0.09,8.8,14.7,"14:52:00",1
"23/04/05","15:10",0.0,19.3,50.7,1015.9,153.3,0.8,1.7,197.8,0.09,8.9,14.6,"15:04:32",1
"23/04/05","15:20",0.0,19.1,50.8,1015.6,162.9,0.8,2.0,120.2,0.05,8.7,14.7,"15:14:48",1
"23/04/05","15:30",0.0,19.1,50.5,1015.4,136.4,0.6,1.7,158.2,0.05,8.6,14.7,"15:25:44",1
"23/04/05","15:40",0.0,19.3,50.9,1015.6,314.0,0.2,0.9,262.5,0.06,8.9,14.6,"15:30:02",1
"23/04/05","15:50",0.0,19.3,50.5,1015.4,243.3,0.6,1.2,258.0,0.07,8.8,14.6,"15:44:56",1
"23/04/05","16:00",0.0,19.5,52.7,1014.9,235.2,1.1,2.5,251.4,0.10,9.6,14.7,"15:54:08",1
"23/04/05","16:10",0.0,19.5,52.4,1014.7,218.1,1.0,2.0,226.7,0.09,9.5,14.6,"16:08:08",1
"23/04/05","16:20",0.0,19.5,51.4,1014.9,209.5,1.1,2.5,144.7,0.06,9.3,14.7,"16:13:52",1
"23/04/05","16:30",0.0,19.2,51.6,1014.7,220.4,1.1,2.0,242.6,0.04,9.0,14.8,"16:26:00",1
"23/04/05","16:40",0.0,19.3,52.3,1014.7,219.8,1.5,2.8,152.6,0.07,9.3,14.6,"16:31:52",1
"23/04/05","16:50",0.0,19.1,52.7,1014.7,232.1,1.7,3.4,243.7,0.04,9.3,14.8,"16:44:48",1
"23/04/05","17:00",0.0,19.0,51.8,1014.7,235.4,1.7,3.3,232.0,0.05,8.9,14.5,"16:55:28",1
"23/04/05","17:10",0.0,19.0,52.6,1014.5,227.3,1.7,4.3,229.0,0.07,9.1,14.7,"17:07:12",1
"23/04/05","17:20",0.0,18.9,51.7,1014.5,212.8,1.5,4.3,216.2,0.04,8.8,14.6,"17:10:02",1
"23/04/05","17:30",0.0,18.7,52.6,1014.9,218.1,1.8,3.6,239.9,0.03,8.9,14.7,"17:22:48",1
"23/04/05","17:40",0.0,18.5,52.8,1014.2,221.7,1.3,3.4,221.5,0.00,8.7,14.7,"17:39:20",1
"23/04/05","17:50",0.0,18.5,52.8,1014.5,235.4,1.6,3.3,238.9,0.00,8.7,14.7,"17:43:36",1
"23/04/05","18:00",0.0,18.4,53.7,1014.7,224.2,1.0,2.7,208.5,0.00,8.9,14.7,"17:51:20",1
"23/04/05","18:10",0.0,18.3,54.9,1014.7,204.6,1.1,2.6,243.4,0.00,9.1,15.1,"18:09:52",1
"23/04/05","18:20",0.0,18.1,56.9,1014.2,238.8,1.2,3.7,229.1,0.00,9.5,14.7,"18:10:56",1
"23/04/05","18:30",0.0,17.8,59.1,1014.9,278.2,0.5,1.2,260.1,0.00,9.8,14.7,"18:21:36",1
"23/04/05","18:40",0.0,17.6,60.3,1014.5,326.6,0.6,1.7,311.7,0.00,9.9,14.7,"18:38:56",1
"23/04/05","18:50",0.0,17.2,62.8,1014.0,334.2,1.6,2.0,337.1,0.00,10.1,14.6,"18:49:04",1
"23/04/05","19:00",0.0,16.7,64.7,1014.5,317.3,1.5,1.8,305.2,0.00,10.1,14.6,"18:59:28",1
"23/04/05","19:10",0.0,16.5,66.4,1014.7,302.6,1.5,2.1,326.2,0.00,10.3,14.9,"19:08:16",1
"23/04/05","19:20",0.0,16.3,69.3,1014.5,296.3,1.7,2.2,314.8,0.00,10.7,14.8,"19:19:04",1
"23/04/05","19:30",0.2,15.8,72.0,1015.4,294.6,1.7,2.2,321.4,0.00,10.8,14.6,"19:20:32",1
"23/04/05","19:40",0.0,15.0,75.5,1015.2,334.7,2.1,3.1,341.7,0.00,10.7,14.5,"19:34:32",1
"23/04/05","19:50",0.2,14.6,80.0,1015.2,340.5,1.6,2.4,333.1,0.00,11.2,14.7,"19:41:52",1
"23/04/05","20:00",0.2,14.3,82.9,1015.2,342.3,1.1,2.0,343.3,0.00,11.5,14.7,"19:50:48",1
"23/04/05","20:10",0.2,14.0,85.2,1015.6,326.0,2.0,3.3,320.2,0.00,11.6,14.6,"20:08:28",1
"23/04/05","20:20",0.2,13.7,86.8,1015.6,319.7,1.7,2.8,318.1,0.00,11.6,14.5,"20:11:20",1
"23/04/05","20:30",0.2,13.6,87.9,1015.6,325.3,1.5,2.0,327.1,0.00,11.7,14.5,"20:21:36",1
"23/04/05","20:40",0.2,13.4,88.8,1015.4,301.4,1.3,2.0,294.4,0.00,11.6,14.5,"20:38:56",1
"23/04/05","20:50",0.0,13.4,89.7,1015.4,278.8,1.6,2.0,297.8,0.00,11.8,14.6,"20:41:44",1
"23/04/05","21:00",0.0,13.3,90.3,1016.1,285.3,1.6,2.4,280.3,0.00,11.8,14.5,"20:52:32",1
"23/04/05","21:10",0.0,13.2,91.0,1015.9,296.9,1.7,2.8,329.4,0.00,11.8,14.5,"21:09:12",1
"23/04/05","21:20",0.0,13.2,91.5,1015.9,325.5,1.6,2.0,338.1,0.00,11.9,14.7,"21:11:04",1
"23/04/05","21:30",0.2,13.1,91.9,1016.1,283.8,1.2,1.8,333.2,0.00,11.9,14.4,"21:20:16",1
"23/04/05","21:40",0.0,13.0,92.4,1015.6,304.8,1.6,2.2,308.3,0.00,11.8,14.5,"21:34:08",1
"23/04/05","21:50",0.0,13.0,92.8,1015.2,325.3,1.3,1.9,324.0,0.00,11.9,14.6,"21:41:44",1
"23/04/05","22:00",0.0,12.9,93.0,1015.4,305.4,1.1,1.6,328.6,0.00,11.8,14.6,"21:50:48",1
"23/04/05","22:10",0.0,12.9,93.3,1014.9,300.4,1.1,1.6,303.8,0.00,11.9,14.3,"22:09:20",1
"23/04/05","22:20",0.0,12.9,93.6,1014.9,325.5,1.2,1.8,317.3,0.00,11.9,14.3,"22:11:12",1
"23/04/05","22:30",0.0,12.9,93.8,1014.7,300.2,1.3,1.8,307.8,0.00,12.0,14.3,"22:27:36",1
"23/04/05","22:40",0.0,12.8,94.1,1014.7,290.7,1.2,1.6,295.0,0.00,11.9,14.3,"22:30:40",1
"23/04/05","22:50",0.0,12.8,94.3,1014.7,282.9,1.5,2.0,266.9,0.00,11.9,14.2,"22:44:36",1
"23/04/05","23:00",0.0,12.9,94.6,1014.9,274.2,1.2,1.6,293.4,0.00,12.1,14.4,"22:51:52",1
"23/04/05","23:10",0.0,12.9,94.8,1014.9,299.0,1.3,1.9,303.9,0.00,12.1,14.2,"23:09:36",1
"23/04/05","23:20",0.0,12.9,94.9,1014.5,330.4,1.5,2.0,334.6,0.00,12.1,14.3,"23:14:40",1
"23/04/05","23:30",0.0,12.9,95.1,1014.5,308.0,1.6,2.4,318.1,0.00,12.2,14.2,"23:28:48",1
"23/04/05","23:40",0.0,12.8,95.2,1014.2,313.4,1.3,1.8,299.3,0.00,12.1,14.4,"23:30:32",1
"23/04/05","23:50",0.0,12.8,95.4,1014.5,322.2,1.3,1.7,319.3,0.00,12.1,14.3,"23:46:40",1
"23/04/05","24:00",0.0,12.8,95.5,1014.0,280.3,1.1,1.7,307.8,0.00,12.1,14.3,"23:57:52",1
